Tracking 18957 objects as of 21-Jan-2018
HD Live streaming from Space Station
objects crossing your sky now

VANGUARD R/B

Track VANGUARD R/B now!
10-day predictions


NORAD ID: 16
Int'l Code: 1958-002A
Perigee: 663.1 km
Apogee: 4,228.9 km
Inclination: 34.3 °
Period: 137.3 minutes
Semi major axis: 8816 km
RCS: 0.2285 m2 (medium)
Launch date: March 17, 1958
Source: United States (US)
Launch site: AIR FORCE EASTERN TEST RANGE (AFETR)

Note: This is a ROCKET BODY
aabbcc
Your satellite tracking list
Your tracking list is empty




NASA's NSSDC Master Catalog

Two Line Element Set (TLE):
1    16U 58002A   18020.84614406 +.00000023 +00000-0 +44420-4 0  9999
2    16 034.2559 171.5567 2022110 133.2191 245.6025 10.48628684366597
Source of the keplerian elements: AFSPC